CZ-3B DEB, 40849

Orbit data source: Space-Track

CZ-3B DEB, 40849 is space debris in HEO originally from a launch on Mon, 19 Dec 2011 UTC launched from the Xichang Space Center, China (XSC). Debris objects in space refer to the collection of defunct objects orbiting the Earth. Examples of debris include non-operational satellites, rocket bodies, and fragments generated from explosions, collisions, or faulty payload assembly.

Loading next visibility...
Identifier
40849, 2011-077AE
Orbit
HEO
Country
Flag of CNCN / PRC
Related business
Manufacturer
CALT
Mission
Spacecraft
Bus & Motor
Unknown
Mass
Unknown
Launch date (UTC)
2011-12-19 (14 years ago)
Launch vehicle
Unknown
Launch site
Xichang Space Center, China (XSC)
Object type
Payload
Rocket body
Debris
Shape & HBR
Unknown
Radar Cross Section
Medium (>0.1 m² and <1 m²)

Expand to show TLE details & history
Last TLE update: 2 days ago

TLE from 2 days ago
0 CZ-3B DEB
1 40849U 11077AE  25256.98517121 -.00000099  00000-0  72643-3 0  9999
2 40849  25.8715  58.4802 7391292 301.3271   6.9229  1.90633739 86678
Epoch: 2025-09-13T23:38Z
TLE epoch observation values (Epoch: 2025-09-13T23:38:38.792Z)
Latitude
-0.00208°
Longitude
70.64504°
Altitude
2,602.007 km
Speed
8.617 km/s
True Right ascension
03h 54m 04s
True Declination
0° 00' 07"
Sunlit
Object was in daylight at epoch
Visualization orbit readout
Latitude
Unknown
Longitude
Unknown
Altitude
Unknown
Speed
Unknown
Apparent Right ascension
Unknown
Apparent Declination
Unknown
Sunlit
N/A
Visualization observer readout
Local Sidereal Time
23:04:15
Azimuth
Unknown
Elevation
Unknown
Doppler factor
Unknown
Orbital elements
Apogee altitude
41,410.724 km
Perigee altitude
790.231 km
Semi-major axis
27,478.615 km
Eccentricity
0.73913
Inclination
25.8715°
RAAN
58.4802°
Arg. of periapsis
301.3271°
True anomaly
58.45429°
Mean anomaly
6.9229°
Eccentric anomaly
24.45337°
Mean motion
0.47649 °/min
Orbital period
755.53 mins
BSTAR
0.00072643
Loading maneuver chart data...
Computing Atmospheric mass density...
Loading historical data...
Loading historical data...
Loading historical data...
Loading historical data...
Loading historical data...
Loading historical data...
Loading historical data...

Documentation

Showing up to 5 results
|